User: anonymous   Login
Location: Luz Observatory
(34.5000°N, 117.2833°W)
Time: 06:29:08
(UTC-07:00)
Language:

Cosmos 1452 Rocket - Orbit

View from above orbital plane
View from above orbital plane
View from above satellite
View from above satellite

Ground track
Ground track

The orbit data is extracted from the following two-line orbital elements,

1 13992U 83031B   15125.31941271  .00000142  00000-0  57980-4 0  9991
2 13992 074.0537 346.3507 0004949 170.5508 309.9543 14.35930897677723
Epoch (UTC): 05 May 2015 07:39:57
Eccentricity: 0.0004949
inclination: 74.0537°
perigee height: 768 km
apogee height: 775 km
right ascension of ascending node: 346.3507°
argument of perigee: 170.5508°
revolutions per day: 14.35930897
mean anomaly at epoch: 309.9543°
orbit number at epoch: 67772

The dashed part of the orbit path shows where the satellite is in the earth's shadow,  

DLR